Time,TemperatureF,DewpointF,PressureIn,WindDirection,WindDirectionDegrees,WindSpeedMPH,WindSpeedGustMPH,Humidity,HourlyPrecipIn,Conditions,Clouds,dailyrainin,SoftwareType,DateUTC
2013-10-23 00:01:00,55.0,44.2,29.83,NE,37,8.0,16.0,67,0.00,,,0.00,meteohub,2013-10-23 04:01:00,
2013-10-23 00:02:00,55.0,44.2,29.83,NNE,27,10.0,16.0,67,0.00,,,0.00,meteohub,2013-10-23 04:02:00,
2013-10-23 00:03:00,55.0,43.9,29.83,NE,34,12.0,16.0,66,0.00,,,0.00,meteohub,2013-10-23 04:03:00,
2013-10-23 00:08:00,55.0,44.2,29.83,NE,46,5.0,14.0,67,0.00,,,0.00,meteohub,2013-10-23 04:08:00,
2013-10-23 00:13:00,54.9,44.1,29.83,North,351,11.0,15.0,67,0.00,,,0.00,meteohub,2013-10-23 04:13:00,
2013-10-23 00:18:00,54.7,43.9,29.83,North,352,9.0,15.0,67,0.00,,,0.00,meteohub,2013-10-23 04:18:00,
2013-10-23 00:23:00,54.7,43.9,29.83,NNW,348,8.0,15.0,67,0.00,,,0.00,meteohub,2013-10-23 04:23:00,
2013-10-23 00:28:00,54.3,43.5,29.83,North,11,16.0,17.0,67,0.00,,,0.00,meteohub,2013-10-23 04:28:00,
2013-10-23 00:33:00,54.3,43.5,29.83,NE,40,6.0,17.0,67,0.00,,,0.00,meteohub,2013-10-23 04:33:00,
2013-10-23 00:38:00,54.0,43.7,29.83,NNW,331,13.0,17.0,68,0.00,,,0.00,meteohub,2013-10-23 04:38:00,
2013-10-23 00:43:00,54.0,43.3,29.84,NNW,333,12.0,17.0,67,0.00,,,0.00,meteohub,2013-10-23 04:43:00,
2013-10-23 00:48:00,53.8,43.2,29.84,North,8,6.0,16.0,67,0.00,,,0.00,meteohub,2013-10-23 04:48:00,
2013-10-23 00:53:00,53.8,43.2,29.84,North,353,9.0,15.0,67,0.00,,,0.00,meteohub,2013-10-23 04:53:00,
2013-10-23 00:58:00,53.4,42.8,29.84,NE,41,12.0,15.0,67,0.00,,,0.00,meteohub,2013-10-23 04:58:00,
2013-10-23 01:03:00,53.2,43.0,29.84,NNW,328,8.0,16.0,68,0.00,,,0.00,meteohub,2013-10-23 05:03:00,
2013-10-23 01:08:00,53.2,42.6,29.84,NNW,343,9.0,16.0,67,0.00,,,0.00,meteohub,2013-10-23 05:08:00,
2013-10-23 01:13:00,53.2,42.6,29.84,NNE,29,12.0,17.0,67,0.00,,,0.00,meteohub,2013-10-23 05:13:00,
2013-10-23 01:18:00,53.1,42.8,29.84,NNW,335,9.0,17.0,68,0.00,,,0.00,meteohub,2013-10-23 05:18:00,
2013-10-23 01:23:00,53.1,42.4,29.84,NNE,20,8.0,17.0,67,0.00,,,0.00,meteohub,2013-10-23 05:23:00,
2013-10-23 01:28:00,52.9,42.3,29.84,North,6,11.0,16.0,67,0.00,,,0.00,meteohub,2013-10-23 05:28:00,
2013-10-23 01:33:00,53.1,42.4,29.84,North,354,8.0,14.0,67,0.00,,,0.00,meteohub,2013-10-23 05:33:00,
2013-10-23 01:38:00,52.9,42.3,29.84,NNE,25,11.0,14.0,67,0.00,,,0.00,meteohub,2013-10-23 05:38:00,
2013-10-23 01:43:00,52.9,42.6,29.85,NNE,19,12.0,14.0,68,0.00,,,0.00,meteohub,2013-10-23 05:43:00,
2013-10-23 01:49:00,52.9,41.4,29.85,NE,38,13.0,14.0,65,0.00,,,0.00,meteohub,2013-10-23 05:49:00,
2013-10-23 01:54:00,52.9,41.0,29.85,NE,51,8.0,16.0,64,0.00,,,0.00,meteohub,2013-10-23 05:54:00,
2013-10-23 01:59:00,53.1,41.2,29.85,North,359,8.0,16.0,64,0.00,,,0.00,meteohub,2013-10-23 05:59:00,
2013-10-23 02:04:00,53.1,41.5,29.85,North,355,15.0,15.0,65,0.00,,,0.00,meteohub,2013-10-23 06:04:00,
2013-10-23 02:09:00,53.1,41.5,29.84,NNE,18,10.0,14.0,65,0.00,,,0.00,meteohub,2013-10-23 06:09:00,
2013-10-23 02:14:00,52.9,40.6,29.84,ENE,70,11.0,16.0,63,0.00,,,0.00,meteohub,2013-10-23 06:14:00,
2013-10-23 02:19:00,52.9,40.3,29.84,North,0,11.0,16.0,62,0.00,,,0.00,meteohub,2013-10-23 06:19:00,
2013-10-23 02:24:00,52.9,39.7,29.84,NNE,27,13.0,16.0,61,0.00,,,0.00,meteohub,2013-10-23 06:24:00,
2013-10-23 02:29:00,52.9,41.0,29.85,NE,53,9.0,16.0,64,0.00,,,0.00,meteohub,2013-10-23 06:29:00,
2013-10-23 02:34:00,52.7,39.6,29.84,North,9,9.0,16.0,61,0.00,,,0.00,meteohub,2013-10-23 06:34:00,
2013-10-23 02:39:00,52.5,40.3,29.84,NNW,344,7.0,15.0,63,0.00,,,0.00,meteohub,2013-10-23 06:39:00,
2013-10-23 02:44:00,52.5,39.9,29.84,NNW,338,9.0,15.0,62,0.00,,,0.00,meteohub,2013-10-23 06:44:00,
2013-10-23 02:49:00,52.5,39.9,29.84,NNE,23,13.0,15.0,62,0.00,,,0.00,meteohub,2013-10-23 06:49:00,
2013-10-23 02:54:00,52.5,39.9,29.84,NW,319,6.0,16.0,62,0.00,,,0.00,meteohub,2013-10-23 06:54:00,
2013-10-23 02:59:00,52.3,39.4,29.84,North,8,10.0,16.0,61,0.00,,,0.00,meteohub,2013-10-23 06:59:00,
2013-10-23 03:04:00,52.3,38.8,29.84,NNW,328,7.0,16.0,60,0.00,,,0.00,meteohub,2013-10-23 07:04:00,
2013-10-23 03:09:00,52.3,38.5,29.83,NNW,342,7.0,16.0,59,0.00,,,0.00,meteohub,2013-10-23 07:09:00,
2013-10-23 03:14:00,52.3,39.7,29.83,North,4,10.0,16.0,62,0.00,,,0.00,meteohub,2013-10-23 07:14:00,
2013-10-23 03:19:00,52.2,39.2,29.83,NNE,12,7.0,16.0,61,0.00,,,0.00,meteohub,2013-10-23 07:19:00,
2013-10-23 03:24:00,52.2,39.6,29.83,NNE,27,8.0,14.0,62,0.00,,,0.00,meteohub,2013-10-23 07:24:00,
2013-10-23 03:29:00,52.2,39.6,29.83,NNE,12,11.0,17.0,62,0.00,,,0.00,meteohub,2013-10-23 07:29:00,
2013-10-23 03:34:00,52.2,39.6,29.83,North,11,12.0,17.0,62,0.00,,,0.00,meteohub,2013-10-23 07:34:00,
2013-10-23 03:39:00,52.0,38.1,29.83,NNE,15,9.0,17.0,59,0.00,,,0.00,meteohub,2013-10-23 07:39:00,
2013-10-23 03:44:00,52.2,39.2,29.83,NW,324,6.0,15.0,61,0.00,,,0.00,meteohub,2013-10-23 07:44:00,
2013-10-23 03:49:00,52.0,39.4,29.83,NE,35,6.0,16.0,62,0.00,,,0.00,meteohub,2013-10-23 07:49:00,
2013-10-23 03:55:00,51.6,38.7,29.83,NE,42,3.0,16.0,61,0.00,,,0.00,meteohub,2013-10-23 07:55:00,
2013-10-23 03:59:00,50.7,37.8,29.82,North,359,7.0,16.0,61,0.00,,,0.00,meteohub,2013-10-23 07:59:00,
2013-10-23 04:05:00,50.7,37.8,29.82,NE,37,7.0,13.0,61,0.00,,,0.00,meteohub,2013-10-23 08:05:00,
2013-10-23 04:10:00,50.7,37.8,29.82,North,-999,-999.0,13.0,61,0.00,,,0.00,meteohub,2013-10-23 08:10:00,
2013-10-23 07:47:00,50.5,36.0,29.80,North,-999,-999.0,-999.0,57,-99.99,,,0.00,meteohub,2013-10-23 11:47:00,
2013-10-23 07:52:00,50.5,36.3,29.80,North,-999,-999.0,-999.0,58,0.00,,,0.00,meteohub,2013-10-23 11:52:00,
2013-10-23 07:57:00,50.7,36.5,29.80,NE,37,3.0,5.0,58,0.00,,,0.00,meteohub,2013-10-23 11:57:00,
2013-10-23 08:02:00,50.9,37.0,29.81,ENE,60,1.0,12.0,59,0.00,,,0.00,meteohub,2013-10-23 12:02:00,
2013-10-23 08:07:00,50.9,36.7,29.81,ENE,58,2.0,12.0,58,0.00,,,0.00,meteohub,2013-10-23 12:07:00,
2013-10-23 08:12:00,51.1,37.2,29.81,NNE,31,7.0,10.0,59,0.00,,,0.00,meteohub,2013-10-23 12:12:00,
2013-10-23 08:18:00,51.3,37.0,29.81,NE,47,2.0,10.0,58,0.00,,,0.00,meteohub,2013-10-23 12:18:00,
2013-10-23 08:23:00,51.1,36.3,29.81,NE,49,6.0,10.0,57,0.00,,,0.00,meteohub,2013-10-23 12:23:00,
2013-10-23 08:28:00,50.9,36.1,29.81,East,92,4.0,10.0,57,0.00,,,0.00,meteohub,2013-10-23 12:28:00,
2013-10-23 08:33:00,50.5,36.3,29.81,ESE,107,3.0,8.0,58,0.00,,,0.00,meteohub,2013-10-23 12:33:00,
2013-10-23 08:38:00,50.5,36.7,29.81,East,94,1.0,8.0,59,0.00,,,0.00,meteohub,2013-10-23 12:38:00,
2013-10-23 08:43:00,50.5,36.3,29.81,East,84,1.0,6.0,58,0.00,,,0.00,meteohub,2013-10-23 12:43:00,
2013-10-23 08:48:00,50.5,36.3,29.81,East,85,2.0,6.0,58,0.00,,,0.00,meteohub,2013-10-23 12:48:00,
2013-10-23 08:53:00,50.7,36.9,29.80,East,86,1.0,4.0,59,0.00,,,0.00,meteohub,2013-10-23 12:53:00,
2013-10-23 08:58:00,50.7,36.5,29.81,SE,141,1.0,5.0,58,0.00,,,0.00,meteohub,2013-10-23 12:58:00,
2013-10-23 09:03:00,51.1,36.9,29.81,East,83,3.0,5.0,58,0.00,,,0.00,meteohub,2013-10-23 13:03:00,
2013-10-23 09:08:00,51.1,36.3,29.81,East,96,1.0,5.0,57,0.00,,,0.00,meteohub,2013-10-23 13:08:00,
2013-10-23 09:13:00,51.3,37.0,29.80,East,94,5.0,5.0,58,0.00,,,0.00,meteohub,2013-10-23 13:13:00,
2013-10-23 09:18:00,51.3,36.1,29.80,SE,131,0.0,6.0,56,0.00,,,0.00,meteohub,2013-10-23 13:18:00,
2013-10-23 09:23:00,51.3,36.5,29.80,ENE,64,3.0,6.0,57,0.00,,,0.00,meteohub,2013-10-23 13:23:00,
2013-10-23 09:28:00,51.3,36.1,29.80,NE,42,2.0,6.0,56,0.00,,,0.00,meteohub,2013-10-23 13:28:00,
2013-10-23 09:33:00,51.3,36.1,29.80,NE,51,3.0,6.0,56,0.00,,,0.00,meteohub,2013-10-23 13:33:00,
2013-10-23 09:38:00,51.3,36.5,29.80,East,82,2.0,7.0,57,0.00,,,0.00,meteohub,2013-10-23 13:38:00,
2013-10-23 09:43:00,51.3,36.1,29.79,ENE,78,1.0,7.0,56,0.00,,,0.00,meteohub,2013-10-23 13:43:00,
2013-10-23 09:48:00,51.3,36.1,29.79,East,98,0.0,5.0,56,0.00,,,0.00,meteohub,2013-10-23 13:48:00,
2013-10-23 09:53:00,51.3,36.5,29.79,East,96,2.0,5.0,57,0.00,,,0.00,meteohub,2013-10-23 13:53:00,
2013-10-23 09:58:00,51.3,36.5,29.79,NNW,348,3.0,5.0,57,0.00,,,0.00,meteohub,2013-10-23 13:58:00,
2013-10-23 10:03:00,51.6,35.1,29.79,North,354,4.0,4.0,53,0.00,,,0.00,meteohub,2013-10-23 14:03:00,
2013-10-23 10:09:00,51.6,35.6,29.79,NNE,23,4.0,8.0,54,0.00,,,0.00,meteohub,2013-10-23 14:09:00,
2013-10-23 10:14:00,51.8,35.6,29.79,NE,37,3.0,9.0,54,0.00,,,0.00,meteohub,2013-10-23 14:14:00,
2013-10-23 10:19:00,51.8,36.1,29.78,East,86,2.0,9.0,55,0.00,,,0.00,meteohub,2013-10-23 14:19:00,
2013-10-23 10:24:00,51.8,36.7,29.78,East,97,1.0,9.0,56,0.00,,,0.00,meteohub,2013-10-23 14:24:00,
2013-10-23 10:29:00,52.0,36.3,29.77,ESE,105,1.0,7.0,55,0.00,,,0.00,meteohub,2013-10-23 14:29:00,
2013-10-23 10:34:00,52.0,36.9,29.77,East,79,2.0,6.0,56,0.00,,,0.00,meteohub,2013-10-23 14:34:00,
2013-10-23 10:39:00,52.0,35.8,29.77,East,82,1.0,5.0,54,0.00,,,0.00,meteohub,2013-10-23 14:39:00,
2013-10-23 10:44:00,52.0,35.8,29.77,East,94,2.0,5.0,54,0.00,,,0.00,meteohub,2013-10-23 14:44:00,
2013-10-23 10:49:00,52.0,35.8,29.76,ENE,63,3.0,4.0,54,0.00,,,0.00,meteohub,2013-10-23 14:49:00,
2013-10-23 10:54:00,51.8,36.1,29.76,ENE,73,4.0,7.0,55,0.00,,,0.00,meteohub,2013-10-23 14:54:00,
2013-10-23 10:59:00,51.6,36.5,29.76,ENE,73,2.0,7.0,56,0.00,,,0.00,meteohub,2013-10-23 14:59:00,
2013-10-23 11:04:00,51.6,36.5,29.76,NNE,28,2.0,7.0,56,0.00,,,0.00,meteohub,2013-10-23 15:04:00,
2013-10-23 11:09:00,51.4,36.7,29.75,ENE,68,4.0,6.0,57,0.00,,,0.00,meteohub,2013-10-23 15:09:00,
2013-10-23 11:14:00,51.4,37.2,29.75,East,100,3.0,6.0,58,0.00,,,0.00,meteohub,2013-10-23 15:14:00,
2013-10-23 11:19:00,51.4,37.2,29.75,ESE,114,3.0,6.0,58,0.00,,,0.00,meteohub,2013-10-23 15:19:00,
2013-10-23 11:24:00,51.4,37.6,29.75,SE,128,2.0,5.0,59,0.00,,,0.00,meteohub,2013-10-23 15:24:00,
2013-10-23 11:29:00,51.3,38.3,29.75,ESE,119,3.0,6.0,61,0.00,,,0.00,meteohub,2013-10-23 15:29:00,
2013-10-23 11:34:00,51.3,37.8,29.76,East,82,1.0,6.0,60,0.00,,,0.00,meteohub,2013-10-23 15:34:00,
2013-10-23 11:39:00,51.3,38.3,29.75,ENE,72,1.0,4.0,61,0.00,,,0.00,meteohub,2013-10-23 15:39:00,
2013-10-23 11:44:00,51.3,38.7,29.75,East,79,2.0,4.0,62,0.00,,,0.00,meteohub,2013-10-23 15:44:00,
2013-10-23 11:49:00,51.3,39.0,29.75,ENE,65,2.0,3.0,63,0.00,,,0.00,meteohub,2013-10-23 15:49:00,
2013-10-23 11:54:00,51.4,40.5,29.74,NNE,14,4.0,4.0,66,0.00,,,0.00,meteohub,2013-10-23 15:54:00,
2013-10-23 11:59:00,51.6,40.6,29.74,NNE,26,3.0,6.0,66,0.00,,,0.00,meteohub,2013-10-23 15:59:00,
2013-10-23 12:04:00,51.6,40.6,29.74,NE,44,2.0,6.0,66,0.00,,,0.00,meteohub,2013-10-23 16:04:00,
2013-10-23 12:09:00,51.6,41.0,29.73,NNW,338,3.0,7.0,67,0.00,,,0.00,meteohub,2013-10-23 16:09:00,
2013-10-23 12:14:00,51.6,41.0,29.73,NE,53,6.0,8.0,67,0.00,,,0.00,meteohub,2013-10-23 16:14:00,
2013-10-23 12:19:00,51.6,41.0,29.73,NNW,348,5.0,9.0,67,0.00,,,0.00,meteohub,2013-10-23 16:19:00,
2013-10-23 12:24:00,51.4,40.8,29.73,NNW,344,6.0,10.0,67,0.00,,,0.00,meteohub,2013-10-23 16:24:00,
2013-10-23 12:29:00,51.4,40.5,29.72,NNE,32,4.0,12.0,66,0.00,,,0.00,meteohub,2013-10-23 16:29:00,
2013-10-23 12:34:00,51.4,40.1,29.72,North,6,3.0,12.0,65,0.00,,,0.00,meteohub,2013-10-23 16:34:00,
2013-10-23 12:40:00,51.3,39.9,29.71,NE,55,6.0,12.0,65,0.00,,,0.00,meteohub,2013-10-23 16:40:00,
2013-10-23 12:45:00,51.3,39.0,29.71,NNE,14,3.0,11.0,63,0.00,,,0.00,meteohub,2013-10-23 16:45:00,
2013-10-23 12:50:00,51.3,39.6,29.70,NE,48,3.0,11.0,64,0.00,,,0.00,meteohub,2013-10-23 16:50:00,
2013-10-23 12:55:00,51.3,39.0,29.70,NNW,342,5.0,10.0,63,0.00,,,0.00,meteohub,2013-10-23 16:55:00,
2013-10-23 13:00:00,51.3,39.0,29.70,NNE,20,5.0,10.0,63,0.00,,,0.00,meteohub,2013-10-23 17:00:00,
2013-10-23 13:05:00,51.3,38.7,29.70,North,4,3.0,10.0,62,0.00,,,0.00,meteohub,2013-10-23 17:05:00,
2013-10-23 13:10:00,51.3,38.7,29.70,NE,53,1.0,9.0,62,0.00,,,0.00,meteohub,2013-10-23 17:10:00,
2013-10-23 13:15:00,51.3,38.3,29.69,NNE,17,3.0,11.0,61,0.00,,,0.00,meteohub,2013-10-23 17:15:00,
2013-10-23 13:20:00,51.1,38.1,29.69,NNE,26,4.0,11.0,61,0.00,,,0.00,meteohub,2013-10-23 17:20:00,
2013-10-23 13:25:00,50.9,38.8,29.68,NNE,22,6.0,11.0,63,0.00,,,0.00,meteohub,2013-10-23 17:25:00,
2013-10-23 13:30:00,50.5,38.8,29.67,NNW,348,7.0,11.0,64,0.00,,,0.00,meteohub,2013-10-23 17:30:00,
2013-10-23 13:35:00,50.4,38.7,29.66,North,4,10.0,11.0,64,0.00,,,0.00,meteohub,2013-10-23 17:35:00,
2013-10-23 13:40:00,50.2,39.2,29.66,NNE,27,2.0,14.0,66,0.00,,,0.00,meteohub,2013-10-23 17:40:00,
2013-10-23 13:45:00,49.5,39.4,29.65,NE,53,8.0,14.0,68,0.00,,,0.00,meteohub,2013-10-23 17:45:00,
2013-10-23 13:50:00,48.9,38.8,29.65,NE,37,6.0,11.0,68,0.00,,,0.00,meteohub,2013-10-23 17:50:00,
2013-10-23 13:55:00,48.7,38.7,29.65,NNW,339,5.0,10.0,68,0.00,,,0.00,meteohub,2013-10-23 17:55:00,
2013-10-23 14:00:00,48.7,38.7,29.66,NE,53,2.0,10.0,68,0.00,,,0.00,meteohub,2013-10-23 18:00:00,
2013-10-23 14:05:00,48.7,38.3,29.66,NE,50,2.0,10.0,67,0.00,,,0.00,meteohub,2013-10-23 18:05:00,
2013-10-23 14:10:00,48.9,38.8,29.66,NE,34,6.0,12.0,68,0.00,,,0.00,meteohub,2013-10-23 18:10:00,
2013-10-23 14:15:00,49.3,37.6,29.66,ENE,70,3.0,12.0,64,0.00,,,0.00,meteohub,2013-10-23 18:15:00,
2013-10-23 14:20:00,49.6,39.2,29.65,NNE,19,8.0,12.0,67,0.00,,,0.00,meteohub,2013-10-23 18:20:00,
2013-10-23 14:25:00,49.8,39.7,29.66,NE,34,8.0,15.0,68,0.01,,,0.00,meteohub,2013-10-23 18:25:00,
2013-10-23 14:30:00,49.8,39.7,29.65,NE,53,2.0,15.0,68,0.01,,,0.01,meteohub,2013-10-23 18:30:00,
2013-10-23 14:35:00,49.6,39.6,29.65,East,98,3.0,15.0,68,0.01,,,0.01,meteohub,2013-10-23 18:35:00,
2013-10-23 14:40:00,49.5,39.4,29.65,ENE,68,4.0,13.0,68,0.01,,,0.01,meteohub,2013-10-23 18:40:00,
2013-10-23 14:45:00,49.5,39.4,29.65,NE,49,3.0,9.0,68,0.01,,,0.01,meteohub,2013-10-23 18:45:00,
2013-10-23 14:51:00,49.5,39.4,29.65,ENE,62,1.0,9.0,68,0.01,,,0.01,meteohub,2013-10-23 18:51:00,
2013-10-23 14:56:00,49.5,39.0,29.65,NNE,13,0.0,9.0,67,0.01,,,0.01,meteohub,2013-10-23 18:56:00,
2013-10-23 15:01:00,49.5,39.0,29.65,East,89,2.0,7.0,67,0.01,,,0.01,meteohub,2013-10-23 19:01:00,
2013-10-23 15:06:00,49.3,39.2,29.65,ENE,71,2.0,7.0,68,0.01,,,0.01,meteohub,2013-10-23 19:06:00,
2013-10-23 15:11:00,49.3,38.8,29.65,East,98,1.0,7.0,67,0.01,,,0.01,meteohub,2013-10-23 19:11:00,
2013-10-23 15:16:00,49.5,39.0,29.65,WNW,302,1.0,6.0,67,0.01,,,0.01,meteohub,2013-10-23 19:16:00,
2013-10-23 15:21:00,49.6,39.2,29.65,ENE,64,2.0,6.0,67,0.01,,,0.01,meteohub,2013-10-23 19:21:00,
2013-10-23 15:26:00,49.8,39.7,29.64,WNW,288,0.0,6.0,68,0.00,,,0.01,meteohub,2013-10-23 19:26:00,
2013-10-23 15:31:00,49.6,39.6,29.65,NE,42,1.0,6.0,68,0.00,,,0.01,meteohub,2013-10-23 19:31:00,
2013-10-23 15:36:00,49.8,39.7,29.66,NNW,340,4.0,6.0,68,0.00,,,0.01,meteohub,2013-10-23 19:36:00,
2013-10-23 15:41:00,50.2,39.6,29.65,NNE,32,5.0,6.0,67,0.00,,,0.01,meteohub,2013-10-23 19:41:00,
2013-10-23 15:46:00,50.4,39.4,29.65,NNW,342,5.0,10.0,66,0.00,,,0.01,meteohub,2013-10-23 19:46:00,
2013-10-23 15:51:00,50.7,39.7,29.65,North,356,5.0,10.0,66,0.00,,,0.01,meteohub,2013-10-23 19:51:00,
2013-10-23 15:56:00,50.7,40.1,29.66,NE,56,4.0,10.0,67,0.00,,,0.01,meteohub,2013-10-23 19:56:00,
2013-10-23 16:01:00,50.7,40.1,29.65,ENE,63,1.0,10.0,67,0.00,,,0.01,meteohub,2013-10-23 20:01:00,
2013-10-23 16:06:00,50.7,40.1,29.65,NNE,15,6.0,10.0,67,0.00,,,0.01,meteohub,2013-10-23 20:06:00,
2013-10-23 16:11:00,50.5,40.5,29.65,North,5,7.0,8.0,68,0.00,,,0.01,meteohub,2013-10-23 20:11:00,
2013-10-23 16:16:00,50.7,40.5,29.65,NNW,340,8.0,11.0,68,0.00,,,0.01,meteohub,2013-10-23 20:16:00,
2013-10-23 16:21:00,50.5,40.5,29.65,NNE,25,5.0,11.0,68,0.00,,,0.01,meteohub,2013-10-23 20:21:00,
2013-10-23 16:26:00,50.5,40.5,29.65,NE,43,5.0,11.0,68,0.00,,,0.01,meteohub,2013-10-23 20:26:00,
2013-10-23 16:31:00,50.5,40.5,29.65,NNW,330,4.0,11.0,68,0.00,,,0.01,meteohub,2013-10-23 20:31:00,
2013-10-23 16:36:00,50.5,40.5,29.65,NNE,18,5.0,9.0,68,0.00,,,0.01,meteohub,2013-10-23 20:36:00,
2013-10-23 16:41:00,50.4,40.3,29.66,NNW,340,6.0,9.0,68,0.00,,,0.01,meteohub,2013-10-23 20:41:00,
2013-10-23 16:46:00,50.4,40.3,29.66,NNW,338,2.0,9.0,68,0.00,,,0.01,meteohub,2013-10-23 20:46:00,
2013-10-23 16:51:00,50.4,40.3,29.66,NNW,347,4.0,8.0,68,0.00,,,0.01,meteohub,2013-10-23 20:51:00,
2013-10-23 16:56:00,50.4,39.7,29.66,NE,42,1.0,7.0,67,0.00,,,0.01,meteohub,2013-10-23 20:56:00,
2013-10-23 17:01:00,50.4,39.7,29.67,NNE,27,3.0,6.0,67,0.00,,,0.01,meteohub,2013-10-23 21:01:00,
2013-10-23 17:06:00,50.5,39.9,29.67,North,353,0.0,6.0,67,0.00,,,0.01,meteohub,2013-10-23 21:06:00,
2013-10-23 17:11:00,50.5,40.5,29.66,NNW,337,2.0,4.0,68,0.00,,,0.01,meteohub,2013-10-23 21:11:00,
2013-10-23 17:16:00,50.7,40.5,29.65,NNE,16,3.0,8.0,68,0.00,,,0.01,meteohub,2013-10-23 21:16:00,
2013-10-23 17:21:00,50.7,40.1,29.65,NNW,345,3.0,8.0,67,0.00,,,0.01,meteohub,2013-10-23 21:21:00,
2013-10-23 17:26:00,50.7,40.5,29.66,North,357,6.0,8.0,68,0.00,,,0.01,meteohub,2013-10-23 21:26:00,
2013-10-23 17:31:00,50.5,40.5,29.66,North,350,8.0,8.0,68,0.00,,,0.01,meteohub,2013-10-23 21:31:00,
2013-10-23 17:36:00,50.5,39.9,29.66,NE,42,3.0,8.0,67,0.00,,,0.01,meteohub,2013-10-23 21:36:00,
2013-10-23 17:42:00,50.5,39.6,29.66,North,356,2.0,8.0,66,0.00,,,0.01,meteohub,2013-10-23 21:42:00,
2013-10-23 17:47:00,50.4,39.7,29.67,NNW,345,1.0,9.0,67,0.00,,,0.01,meteohub,2013-10-23 21:47:00,
2013-10-23 17:52:00,50.4,39.7,29.67,North,5,4.0,9.0,67,0.00,,,0.01,meteohub,2013-10-23 21:52:00,
2013-10-23 17:57:00,50.5,39.6,29.67,NNW,328,1.0,9.0,66,0.00,,,0.01,meteohub,2013-10-23 21:57:00,
2013-10-23 18:02:00,50.4,38.7,29.67,NE,37,4.0,9.0,64,0.00,,,0.01,meteohub,2013-10-23 22:02:00,
2013-10-23 18:07:00,50.4,39.0,29.67,NNW,328,4.0,9.0,65,0.00,,,0.01,meteohub,2013-10-23 22:07:00,
2013-10-23 18:12:00,50.5,37.9,29.67,North,356,4.0,7.0,62,0.00,,,0.01,meteohub,2013-10-23 22:12:00,
2013-10-23 18:17:00,50.5,39.2,29.67,NE,46,4.0,8.0,65,0.00,,,0.01,meteohub,2013-10-23 22:17:00,
2013-10-23 18:22:00,50.5,39.9,29.66,North,6,5.0,8.0,67,0.00,,,0.01,meteohub,2013-10-23 22:22:00,
2013-10-23 18:27:00,50.5,39.9,29.67,NNE,26,2.0,8.0,67,0.00,,,0.01,meteohub,2013-10-23 22:27:00,
2013-10-23 18:32:00,50.7,39.0,29.67,NNE,32,4.0,8.0,64,0.00,,,0.01,meteohub,2013-10-23 22:32:00,
2013-10-23 18:37:00,50.7,38.7,29.67,NNW,330,5.0,8.0,63,0.00,,,0.01,meteohub,2013-10-23 22:37:00,
2013-10-23 18:42:00,50.9,37.9,29.68,NNE,18,4.0,8.0,61,0.00,,,0.01,meteohub,2013-10-23 22:42:00,
2013-10-23 18:47:00,51.1,39.4,29.67,NW,311,3.0,9.0,64,0.00,,,0.01,meteohub,2013-10-23 22:47:00,
2013-10-23 18:52:00,51.1,38.5,29.67,North,353,5.0,9.0,62,0.00,,,0.01,meteohub,2013-10-23 22:52:00,
2013-10-23 18:57:00,51.1,36.9,29.67,NNW,332,4.0,9.0,58,0.00,,,0.01,meteohub,2013-10-23 22:57:00,
2013-10-23 19:02:00,51.1,38.1,29.67,NNW,335,3.0,8.0,61,0.00,,,0.01,meteohub,2013-10-23 23:02:00,
2013-10-23 19:07:00,51.1,38.1,29.68,NNE,15,3.0,8.0,61,0.00,,,0.01,meteohub,2013-10-23 23:07:00,
2013-10-23 19:12:00,51.1,38.5,29.68,NNE,27,4.0,8.0,62,0.00,,,0.01,meteohub,2013-10-23 23:12:00,
2013-10-23 19:17:00,51.1,38.8,29.68,NNE,32,5.0,8.0,63,0.00,,,0.01,meteohub,2013-10-23 23:17:00,
2013-10-23 19:21:00,51.1,38.1,29.68,North,0,3.0,8.0,61,0.00,,,0.01,meteohub,2013-10-23 23:21:00,
2013-10-23 19:26:00,51.3,38.7,29.68,WNW,300,4.0,8.0,62,0.00,,,0.01,meteohub,2013-10-23 23:26:00,
2013-10-23 19:32:00,51.3,39.6,29.68,ENE,58,4.0,8.0,64,0.00,,,0.01,meteohub,2013-10-23 23:32:00,
2013-10-23 19:37:00,51.4,38.5,29.68,NNW,328,4.0,10.0,61,0.00,,,0.01,meteohub,2013-10-23 23:37:00,
2013-10-23 19:42:00,51.4,38.8,29.68,NNW,329,5.0,10.0,62,0.00,,,0.01,meteohub,2013-10-23 23:42:00,
2013-10-23 19:47:00,51.4,37.9,29.68,NW,313,2.0,11.0,60,0.00,,,0.01,meteohub,2013-10-23 23:47:00,
2013-10-23 19:52:00,51.6,39.0,29.68,North,352,6.0,11.0,62,0.00,,,0.01,meteohub,2013-10-23 23:52:00,
2013-10-23 19:57:00,51.6,39.4,29.69,NW,326,1.0,11.0,63,0.00,,,0.01,meteohub,2013-10-23 23:57:00,
2013-10-23 20:02:00,51.6,39.9,29.69,NNW,332,3.0,10.0,64,0.00,,,0.01,meteohub,2013-10-24 00:02:00,
2013-10-23 20:07:00,51.6,39.0,29.69,NW,304,5.0,10.0,62,0.00,,,0.00,meteohub,2013-10-24 00:07:00,
2013-10-23 20:11:00,51.6,39.4,29.69,NW,314,2.0,10.0,63,0.00,,,0.00,meteohub,2013-10-24 00:11:00,
2013-10-23 20:16:00,51.6,39.9,29.69,NW,312,2.0,10.0,64,0.00,,,0.00,meteohub,2013-10-24 00:16:00,
2013-10-23 20:22:00,51.6,39.9,29.69,NW,325,2.0,7.0,64,0.00,,,0.00,meteohub,2013-10-24 00:22:00,
2013-10-23 20:27:00,51.6,39.9,29.69,NW,307,4.0,6.0,64,0.00,,,0.00,meteohub,2013-10-24 00:27:00,
2013-10-23 20:32:00,52.0,40.1,29.69,NW,324,4.0,7.0,64,0.00,,,0.00,meteohub,2013-10-24 00:32:00,
2013-10-23 20:37:00,52.2,39.6,29.70,NW,309,2.0,15.0,62,0.00,,,0.00,meteohub,2013-10-24 00:37:00,
2013-10-23 20:42:00,52.0,39.7,29.70,NW,304,2.0,15.0,63,0.00,,,0.00,meteohub,2013-10-24 00:42:00,
2013-10-23 20:47:00,52.2,39.6,29.70,NW,318,4.0,15.0,62,0.00,,,0.00,meteohub,2013-10-24 00:47:00,
2013-10-23 20:52:00,52.3,41.0,29.70,NW,323,4.0,9.0,65,0.00,,,0.00,meteohub,2013-10-24 00:52:00,
2013-10-23 20:57:00,52.3,39.7,29.70,NW,319,3.0,15.0,62,0.00,,,0.00,meteohub,2013-10-24 00:57:00,
2013-10-23 21:02:00,52.2,39.2,29.70,NW,309,4.0,15.0,61,0.00,,,0.00,meteohub,2013-10-24 01:02:00,
2013-10-23 21:07:00,52.2,39.9,29.70,North,353,7.0,12.0,63,0.00,,,0.00,meteohub,2013-10-24 01:07:00,
2013-10-23 21:12:00,52.2,39.6,29.70,NW,312,4.0,11.0,62,0.00,,,0.00,meteohub,2013-10-24 01:12:00,
2013-10-23 21:17:00,52.2,40.3,29.71,NNW,335,4.0,11.0,64,0.00,,,0.00,meteohub,2013-10-24 01:17:00,
2013-10-23 21:22:00,52.2,39.9,29.71,NW,314,3.0,11.0,63,0.00,,,0.00,meteohub,2013-10-24 01:22:00,
2013-10-23 21:27:00,52.2,39.6,29.71,NW,321,3.0,15.0,62,0.00,,,0.00,meteohub,2013-10-24 01:27:00,
2013-10-23 21:32:00,52.2,40.3,29.71,NW,312,3.0,15.0,64,0.00,,,0.00,meteohub,2013-10-24 01:32:00,
2013-10-23 21:37:00,52.2,40.3,29.72,WNW,295,3.0,13.0,64,0.00,,,0.00,meteohub,2013-10-24 01:37:00,
2013-10-23 21:42:00,52.3,41.4,29.72,NW,308,5.0,13.0,66,0.00,,,0.00,meteohub,2013-10-24 01:42:00,
2013-10-23 21:47:00,51.6,39.0,29.72,NNW,345,4.0,12.0,62,0.00,,,0.00,meteohub,2013-10-24 01:47:00,
2013-10-23 21:52:00,51.6,39.9,29.72,WNW,284,3.0,12.0,64,0.00,,,0.00,meteohub,2013-10-24 01:52:00,
2013-10-23 21:57:00,51.3,39.6,29.72,NW,310,2.0,11.0,64,0.00,,,0.00,meteohub,2013-10-24 01:57:00,
2013-10-23 22:02:00,51.3,38.3,29.72,NNW,333,3.0,11.0,61,0.00,,,0.00,meteohub,2013-10-24 02:02:00,
2013-10-23 22:07:00,51.4,38.5,29.72,NW,318,3.0,6.0,61,0.00,,,0.00,meteohub,2013-10-24 02:07:00,
2013-10-23 22:12:00,51.4,40.1,29.73,NW,316,0.0,12.0,65,0.00,,,0.00,meteohub,2013-10-24 02:12:00,
2013-10-23 22:17:00,51.6,40.3,29.73,NW,310,2.0,12.0,65,0.00,,,0.00,meteohub,2013-10-24 02:17:00,
2013-10-23 22:22:00,51.8,40.5,29.72,NW,323,5.0,12.0,65,0.00,,,0.00,meteohub,2013-10-24 02:22:00,
2013-10-23 22:27:00,51.8,40.8,29.73,WNW,293,2.0,16.0,66,0.00,,,0.00,meteohub,2013-10-24 02:27:00,
2013-10-23 22:32:00,51.3,40.3,29.73,NW,314,3.0,16.0,66,0.00,,,0.00,meteohub,2013-10-24 02:32:00,
2013-10-23 22:37:00,51.3,40.6,29.73,NNW,328,6.0,16.0,67,0.00,,,0.00,meteohub,2013-10-24 02:37:00,
2013-10-23 22:42:00,51.4,40.8,29.73,NNW,328,4.0,9.0,67,0.00,,,0.00,meteohub,2013-10-24 02:42:00,
2013-10-23 22:47:00,51.4,40.8,29.73,NW,314,5.0,9.0,67,0.00,,,0.00,meteohub,2013-10-24 02:47:00,
2013-10-23 22:52:00,51.4,41.2,29.73,WNW,303,5.0,9.0,68,0.00,,,0.00,meteohub,2013-10-24 02:52:00,
2013-10-23 22:56:00,50.5,40.5,29.73,NNW,342,4.0,15.0,68,0.00,,,0.00,meteohub,2013-10-24 02:56:00,
2013-10-23 23:01:00,50.4,40.6,29.73,NNW,337,9.0,15.0,69,0.00,,,0.00,meteohub,2013-10-24 03:01:00,
2013-10-23 23:07:00,50.2,40.1,29.73,NNW,328,7.0,18.0,68,0.00,,,0.00,meteohub,2013-10-24 03:07:00,
2013-10-23 23:12:00,50.0,39.9,29.74,NW,325,5.0,18.0,68,0.00,,,0.00,meteohub,2013-10-24 03:12:00,
2013-10-23 23:17:00,50.2,40.1,29.73,WNW,293,8.0,18.0,68,0.00,,,0.00,meteohub,2013-10-24 03:17:00,
2013-10-23 23:22:00,50.0,39.9,29.74,NNW,328,10.0,18.0,68,0.00,,,0.00,meteohub,2013-10-24 03:22:00,
2013-10-23 23:26:00,50.0,39.9,29.74,NW,319,4.0,18.0,68,0.00,,,0.00,meteohub,2013-10-24 03:26:00,
2013-10-23 23:32:00,49.8,39.7,29.74,NW,316,2.0,17.0,68,0.00,,,0.00,meteohub,2013-10-24 03:32:00,
2013-10-23 23:37:00,49.6,39.6,29.74,NNW,347,1.0,14.0,68,0.00,,,0.00,meteohub,2013-10-24 03:37:00,
2013-10-23 23:42:00,49.6,39.6,29.74,WNW,300,3.0,7.0,68,0.00,,,0.00,meteohub,2013-10-24 03:42:00,
2013-10-23 23:46:00,49.8,39.7,29.74,NNE,18,5.0,5.0,68,0.00,,,0.00,meteohub,2013-10-24 03:46:00,
2013-10-23 23:51:00,50.4,39.7,29.74,NW,321,4.0,17.0,67,0.00,,,0.00,meteohub,2013-10-24 03:51:00,
2013-10-23 23:56:00,50.5,39.6,29.74,North,11,12.0,17.0,66,0.00,,,0.00,meteohub,2013-10-24 03:56:00,